When you browse on this site, cookies collect data to enhance your experience and personalize the content and advertising you see.
Visit our Privacy Policy to learn more. By continuing to use the site, you agree to this use of cookies and data.
  • In Österreich
  • Länderverzeichnis
  • Für 7 Tage
  • Wassertemperatur
  • Satellitenkarten
  • Wetterkarte
  • News
  • Widgets
  • user-avatar
    Anmelden

    Stündliche Wetter Granica

    Heute, 18 Januar, Freitag

    Zeit Temperatur Niederschläge Wind Luftdruck Luftfeuchtigkeit
    00:00 +1°C° 0.1 mm 5 m/S 742 mmHg 89%
    01:00 +1°C° 0 mm 5 m/S 742 mmHg 88%
    02:00 +1°C° 0 mm 5 m/S 742 mmHg 86%
    03:00 +1°C° 0 mm 6 m/S 742 mmHg 85%
    04:00 +1°C° 0 mm 6 m/S 742 mmHg 83%
    05:00 -1°C° 0 mm 6 m/S 742 mmHg 82%
    06:00 -1°C° 0 mm 6 m/S 743 mmHg 81%
    07:00 -2°C° 0 mm 6 m/S 743 mmHg 80%
    08:00 -2°C° 0 mm 7 m/S 744 mmHg 80%
    09:00 -1°C° 0 mm 7 m/S 745 mmHg 80%
    10:00 -1°C° 0 mm 7 m/S 746 mmHg 79%
    11:00 -1°C° 0.1 mm 7 m/S 747 mmHg 75%
    12:00 -2°C° 0.1 mm 6 m/S 748 mmHg 71%
    13:00 -2°C° 0 mm 6 m/S 749 mmHg 67%
    14:00 -1°C° 0 mm 5 m/S 750 mmHg 69%
    15:00 -2°C° 0 mm 5 m/S 750 mmHg 70%
    16:00 -3°C° 0 mm 4 m/S 751 mmHg 72%
    17:00 -3°C° 0 mm 4 m/S 752 mmHg 72%
    18:00 -3°C° 0 mm 4 m/S 752 mmHg 72%
    19:00 -3°C° 0 mm 4 m/S 753 mmHg 72%
    20:00 -3°C° 0 mm 4 m/S 753 mmHg 74%
    21:00 -3°C° 0 mm 4 m/S 754 mmHg 75%
    22:00 -3°C° 0 mm 4 m/S 754 mmHg 77%
    23:00 -3°C° 0 mm 4 m/S 755 mmHg 78%

    Morgen, 19 Januar, Samstag

    Zeit Temperatur Niederschläge Wind Luftdruck Luftfeuchtigkeit
    00:00 -4°C° 0 mm 4 m/S 755 mmHg 79%
    01:00 -4°C° 0 mm 4 m/S 755 mmHg 80%
    02:00 -4°C° 0 mm 3 m/S 755 mmHg 80%
    03:00 -4°C° 0 mm 3 m/S 755 mmHg 80%
    04:00 -4°C° 0 mm 3 m/S 755 mmHg 80%
    05:00 -4°C° 0 mm 3 m/S 755 mmHg 81%
    06:00 -4°C° 0 mm 3 m/S 756 mmHg 82%
    07:00 -4°C° 0 mm 3 m/S 756 mmHg 83%
    08:00 -2°C° 0 mm 3 m/S 756 mmHg 82%
    09:00 -2°C° 0 mm 3 m/S 756 mmHg 81%
    10:00 -2°C° 0 mm 3 m/S 757 mmHg 80%
    11:00 -1°C° 0 mm 3 m/S 756 mmHg 77%
    12:00 -1°C° 0 mm 3 m/S 756 mmHg 74%
    13:00 0°C° 0 mm 3 m/S 756 mmHg 72%
    14:00 -1°C° 0 mm 2 m/S 756 mmHg 74%
    15:00 -2°C° 0 mm 2 m/S 756 mmHg 77%
    16:00 0°C° 0 mm 1 m/S 756 mmHg 80%
    17:00 0°C° 0 mm 1 m/S 756 mmHg 81%
    18:00 -3°C° 0 mm 2 m/S 756 mmHg 82%
    19:00 -3°C° 0 mm 2 m/S 756 mmHg 83%
    20:00 -3°C° 0 mm 2 m/S 756 mmHg 84%
    21:00 -3°C° 0 mm 2 m/S 756 mmHg 84%
    22:00 -1°C° 0 mm 1 m/S 756 mmHg 85%
    23:00 -1°C° 0 mm 1 m/S 756 mmHg 85%

    übermorgen, 20 Januar, Sonntag

    Zeit Temperatur Niederschläge Wind Luftdruck Luftfeuchtigkeit
    00:00 -1°C° 0 mm 1 m/S 756 mmHg 85%
    01:00 -1°C° 0 mm 1 m/S 756 mmHg 85%
    02:00 -1°C° 0 mm 1 m/S 755 mmHg 86%
    03:00 -2°C° 0 mm 1 m/S 755 mmHg 86%
    04:00 -2°C° 0 mm 1 m/S 755 mmHg 86%
    05:00 -2°C° 0 mm 1 m/S 755 mmHg 86%
    06:00 -2°C° 0 mm 1 m/S 755 mmHg 86%
    07:00 -2°C° 0 mm 1 m/S 755 mmHg 86%
    08:00 -2°C° 0 mm 1 m/S 755 mmHg 82%
    09:00 -1°C° 0 mm 1 m/S 755 mmHg 79%
    10:00 -1°C° 0 mm 1 m/S 755 mmHg 75%
    11:00 0°C° 0 mm 1 m/S 755 mmHg 71%
    12:00 0°C° 0 mm 1 m/S 755 mmHg 68%
    13:00 +1°C° 0 mm 1 m/S 754 mmHg 64%
    14:00 0°C° 0 mm 1 m/S 754 mmHg 66%
    15:00 0°C° 0 mm 1 m/S 754 mmHg 69%
    16:00 -1°C° 0 mm 1 m/S 754 mmHg 72%
    17:00 -1°C° 0 mm 1 m/S 754 mmHg 73%
    18:00 -1°C° 0 mm 1 m/S 755 mmHg 74%
    19:00 -3°C° 0 mm 2 m/S 755 mmHg 75%
    20:00 -3°C° 0 mm 2 m/S 755 mmHg 76%
    21:00 -3°C° 0 mm 2 m/S 756 mmHg 76%
    22:00 -4°C° 0 mm 2 m/S 756 mmHg 77%
    23:00 -4°C° 0 mm 2 m/S 756 mmHg 80%

    21 Januar, Montag

    Zeit Temperatur Niederschläge Wind Luftdruck Luftfeuchtigkeit
    00:00 -4°C° 0 mm 2 m/S 756 mmHg 83%
    01:00 -4°C° 0 mm 2 m/S 757 mmHg 86%
    02:00 -4°C° 0 mm 2 m/S 757 mmHg 88%
    03:00 -4°C° 0 mm 2 m/S 757 mmHg 90%
    04:00 -4°C° 0 mm 2 m/S 757 mmHg 92%
    05:00 -4°C° 0 mm 2 m/S 757 mmHg 92%
    06:00 -2°C° 0 mm 1 m/S 757 mmHg 92%
    07:00 -2°C° 0 mm 1 m/S 758 mmHg 92%
    08:00 -3°C° 0 mm 2 m/S 758 mmHg 90%
    09:00 -3°C° 0 mm 2 m/S 758 mmHg 87%
    10:00 -2°C° 0 mm 2 m/S 758 mmHg 85%
    11:00 -2°C° 0 mm 2 m/S 758 mmHg 81%
    12:00 -1°C° 0 mm 3 m/S 758 mmHg 78%
    13:00 -1°C° 0 mm 3 m/S 758 mmHg 74%
    14:00 -1°C° 0 mm 3 m/S 757 mmHg 76%
    15:00 -2°C° 0 mm 3 m/S 757 mmHg 79%
    16:00 -2°C° 0 mm 2 m/S 757 mmHg 81%
    17:00 -2°C° 0 mm 3 m/S 757 mmHg 82%
    18:00 -4°C° 0 mm 3 m/S 757 mmHg 83%
    19:00 -4°C° 0 mm 3 m/S 757 mmHg 85%
    20:00 -4°C° 0 mm 3 m/S 757 mmHg 84%
    21:00 -4°C° 0 mm 3 m/S 756 mmHg 83%
    22:00 -4°C° 0 mm 3 m/S 756 mmHg 82%
    23:00 -4°C° 0 mm 3 m/S 756 mmHg 81%

    22 Januar, Dienstag

    Zeit Temperatur Niederschläge Wind Luftdruck Luftfeuchtigkeit
    00:00 -4°C° 0 mm 3 m/S 756 mmHg 79%
    01:00 -4°C° 0 mm 3 m/S 755 mmHg 78%
    02:00 -4°C° 0 mm 3 m/S 755 mmHg 78%
    03:00 -5°C° 0 mm 3 m/S 754 mmHg 78%
    04:00 -5°C° 0 mm 3 m/S 754 mmHg 78%
    05:00 -5°C° 0 mm 3 m/S 754 mmHg 79%
    06:00 -5°C° 0 mm 3 m/S 753 mmHg 80%
    07:00 -5°C° 0 mm 3 m/S 753 mmHg 81%
    08:00 -5°C° 0 mm 3 m/S 753 mmHg 78%
    09:00 -4°C° 0 mm 3 m/S 753 mmHg 75%
    10:00 -4°C° 0 mm 3 m/S 752 mmHg 72%
    11:00 -2°C° 0 mm 3 m/S 752 mmHg 69%
    12:00 -2°C° 0 mm 3 m/S 751 mmHg 66%
    13:00 -1°C° 0 mm 2 m/S 751 mmHg 62%
    14:00 -2°C° 0 mm 2 m/S 750 mmHg 65%
    15:00 -2°C° 0 mm 2 m/S 750 mmHg 68%
    16:00 -3°C° 0 mm 2 m/S 749 mmHg 70%
    17:00 -3°C° 0 mm 2 m/S 749 mmHg 71%
    18:00 -4°C° 0 mm 3 m/S 749 mmHg 72%
    19:00 -4°C° 0 mm 3 m/S 748 mmHg 73%
    20:00 -4°C° 0 mm 3 m/S 748 mmHg 73%
    21:00 -5°C° 0 mm 3 m/S 748 mmHg 72%
    22:00 -5°C° 0 mm 3 m/S 747 mmHg 72%
    23:00 -5°C° 0 mm 3 m/S 747 mmHg 76%

    23 Januar, Mittwoch

    Zeit Temperatur Niederschläge Wind Luftdruck Luftfeuchtigkeit
    00:00 -5°C° 0 mm 3 m/S 746 mmHg 80%
    01:00 -5°C° 0 mm 3 m/S 746 mmHg 84%
    02:00 -5°C° 0 mm 4 m/S 746 mmHg 84%
    03:00 -7°C° 0 mm 4 m/S 745 mmHg 85%
    04:00 -7°C° 0 mm 4 m/S 744 mmHg 86%
    05:00 -7°C° 0 mm 4 m/S 744 mmHg 84%
    06:00 -7°C° 0 mm 5 m/S 744 mmHg 83%
    07:00 -7°C° 0 mm 5 m/S 744 mmHg 82%
    08:00 -7°C° 0 mm 5 m/S 744 mmHg 80%
    09:00 -7°C° 0 mm 5 m/S 743 mmHg 79%
    10:00 -8°C° 0 mm 6 m/S 743 mmHg 77%
    11:00 -6°C° 0.1 mm 6 m/S 743 mmHg 76%
    12:00 -6°C° 0.1 mm 6 m/S 742 mmHg 75%
    13:00 -6°C° 0.1 mm 6 m/S 742 mmHg 74%
    14:00 -5°C° 0.1 mm 5 m/S 742 mmHg 77%
    15:00 -5°C° 0.1 mm 5 m/S 741 mmHg 79%
    16:00 -4°C° 0.1 mm 5 m/S 741 mmHg 82%
    17:00 -4°C° 0.1 mm 5 m/S 741 mmHg 83%
    18:00 -4°C° 0.1 mm 4 m/S 741 mmHg 83%
    19:00 -4°C° 0.1 mm 4 m/S 741 mmHg 84%
    20:00 -3°C° 0 mm 4 m/S 741 mmHg 85%
    21:00 -3°C° 0 mm 4 m/S 741 mmHg 87%
    22:00 -3°C° 0 mm 4 m/S 740 mmHg 89%
    23:00 -2°C° 0.2 mm 4 m/S 740 mmHg 90%
    Mehr zeigen